Miscellaneous Local Product
Issued by NWS North Platte, NE

Home | Current Version | Previous Version | Graphics & Text | Print | Product List | Glossary On
Versions: 1 2 3 4 5 6 7 8 9 10 11 12 13 14 15 16 17 18 19 20 21 22 23 24 25 26 27 28 29 30 31 32 33 34 35 36 37 38 39 40 41 42 43 44 45 46 47 48 49 50
485
AXUS43 KLBF 061110
MISLBF


WESTERN AND NORTH CENTRAL NEBRASKA HOURLY WEATHER ROUNDUP
NATIONAL WEATHER SERVICE NORTH PLATTE NE
500 AM CST SAT FEB 06 2016

NOTE: "FAIR" INDICATES FEW OR NO CLOUDS BELOW 12,000 FEET WITH NO
SIGNIFICANT WEATHER AND/OR OBSTRUCTIONS TO VISIBILITY.

NOTE: STATIONS NOT REPORTING VARIABLES SUCH AS SKY/WEATHER OR
PRESSURE ARE PROVIDED BY THE NEBRASKA DEPARTMENT OF
ROADS...RAWS...AND APRS NETWORKS...AND ARE NOT UNDER
NATIONAL WEATHER SERVICE QUALITY CONTROL.

...OBSERVATIONS IN AND NEAR THE EASTERN PANHANDLE OF NEBRASKA...

CITY           SKY/WX    TMP DP  RH WIND       PRES   REMARKS
PINE RIDGE     CLOUDY    27  14  58 W7        30.13F WCI  19
CHADRON        CLOUDY    19  13  77 SW9       30.15F WCI   8
ALLIANCE       CLOUDY    13   9  84 W10       30.14F WCI   0
SIDNEY         CLOUDY    17   9  70 W12       30.20F WCI   4
CRESCENT LAKE    N/A     25  17  71 W6          N/A  WCI  18
BIG SPRINGS      N/A     16  11  81 W12         N/A  WCI   3
$$

...OBSERVATIONS IN NORTH CENTRAL NEBRASKA...

CITY           SKY/WX    TMP DP  RH WIND       PRES   REMARKS
VALENTINE      CLOUDY    21  16  81 W9        30.12F WCI  11
THEDFORD       CLOUDY    22  16  78 W3        30.17S
AINSWORTH      CLEAR     23  18  80 SW9       30.12F WCI  13
O`NEILL        CLOUDY    19  17  91 SW8       30.15F WCI   9
ORD            FOG       13  10  88 CALM      30.18F VSB 3/4
BROKEN BOW     CLOUDY    20  16  84 CALM      30.18F
VALENTINE NWR    N/A     23  15  70 SW7         N/A  WCI  15
BUTTE            N/A     23  20  89 S7          N/A  WCI  15
HALSEY           N/A     20  14  77 W3          N/A
CHAMBERS         N/A     20  16  85 S5          N/A  WCI  14
EWING            N/A     18  17  94 CALM        N/A
$$

...OBSERVATIONS IN SOUTHWEST NEBRASKA AND FAR NORTHEAST COLORADO...

CITY           SKY/WX    TMP DP  RH WIND       PRES   REMARKS
WRAY           FAIR      10   5  79 W8        30.24F WCI  -2
HOLYOKE        FAIR      19  10  68 W13       30.21F WCI   7
IMPERIAL       CLOUDY    18   9  68 W10       30.22F WCI   6
OGALLALA       CLOUDY    18   9  68 W9        30.22S WCI   6
NORTH PLATTE   CLOUDY    12   7  80 NW5       30.22S WCI   4
MCCOOK         CLOUDY    15   9  76 W13       30.26F WCI   1
LEXINGTON      CLOUDY    11   8  85 W5        30.22F FOG     WCI   3
PAXTON           N/A     17  13  82 SW7         N/A  WCI   8
STAPLETON        N/A     15  12  86 CALM        N/A
GOTHENBURG       N/A     13  11  90 W3          N/A
CALLAWAY         N/A     16  13  88 CALM        N/A
$$

...OBSERVATIONS IN CENTRAL LINCOLN COUNTY AREA...

CITY           SKY/WX    TMP DP  RH WIND       PRES   REMARKS
N.P. AIRPORT   CLOUDY    12   7  80 NW5       30.22S WCI   4
N.P. DOWNTOWN    N/A     15  12  88 CALM        N/A
N.P. SOUTHEAST   N/A     16  12  83 CALM        N/A
N.P. HILLCREST   N/A     15  12  89 W6          N/A  WCI   6
$$

...SOME OBSERVATIONS FROM AROUND THE REGION...

CITY           SKY/WX    TMP DP  RH WIND       PRES   REMARKS
DENVER         CLOUDY    23   6  48 S13       30.20F WCI  11
LARAMIE        CLOUDY    18   9  68 SW21      30.23F WCI   1
CHEYENNE       CLOUDY    28  13  53 W20       30.15F WCI  15
SCOTTSBLUFF    CLEAR     17  11  77 NW9       30.18F WCI   6
RAPID CITY     CLOUDY    27  17  66 CALM      30.04F
BISMARCK       CLOUDY    33  23  66 SW6       29.90F WCI  28
PIERRE         CLEAR     29  22  75 SW15      30.03F WCI  18
WINNER         FAIR      27  17  66 SW15      30.10S WCI  15
SIOUX FALLS    CLOUDY    21  19  92 SW5       30.14F WCI  15
OMAHA          CLOUDY    31  28  89 NW9       30.26R WCI  23
GRAND ISLAND   PTCLDY    16  13  88 SW7       30.23F WCI   6
KANSAS CITY    CLEAR     29  23  78 N5        30.25R WCI  24
WICHITA        CLEAR     27  23  85 NW8       30.30S WCI  19
OKLAHOMA CITY  MOCLDY    38  33  82 NW10      30.29R WCI  31
LIBERAL        CLEAR     18  10  73 W9        30.33S WCI   6
HAYS           CLEAR     18   7  62 W7        30.29S WCI   8
GOODLAND       CLOUDY    19   8  62 W14       30.25F WCI   6
$$




USA.gov is the U.S. government's official web portal to all federal, state and local government web resources and services.